Kilmarnock, Virginia, United States (22482)
Lat: 37.71N, Lon: 76.38W
Wx Zone: VAZ078
Local Info
Past Weather Observations for Thursday, April 17, 2014

NOTE: This archive is for the closest National Weather Service station to Kilmarnock. Information may differ from the station used for current weather conditions.

Time Weather Temperature Dewpoint Humidity Pressure Winds Precip Visibility
23:55
Partly Cloudy
43°F / 6°C 34°F / 1°C 71% 30.57 in
(1035 mb)
NE 4.6 mph
(NE 7 kph)
- 10SM
23:35
Mostly Cloudy
45°F / 7°C 34°F / 1°C 66% 30.57 in
(1035 mb)
NE 4.6 mph
(NE 7 kph)
- 10SM
23:15
Overcast
45°F / 7°C 34°F / 1°C 66% 30.57 in
(1035 mb)
NE 5.8 mph
(NE 9 kph)
- 10SM
22:55
Overcast
45°F / 7°C 34°F / 1°C 66% 30.57 in
(1035 mb)
NE 3.5 mph
(NE 6 kph)
- 10SM
22:35
Overcast
46°F / 8°C 34°F / 1°C 62% 30.6 in
(1036 mb)
ENE 3.5 mph
(ENE 6 kph)
- 10SM
22:15
Overcast
46°F / 8°C 34°F / 1°C 62% 30.6 in
(1036 mb)
ENE 4.6 mph
(ENE 7 kph)
- 10SM
21:55
Overcast
46°F / 8°C 34°F / 1°C 62% 30.6 in
(1036 mb)
ENE 6.9 mph
(ENE 11 kph)
- 10SM
21:35
Overcast
46°F / 8°C 34°F / 1°C 62% 30.57 in
(1035 mb)
ENE 4.6 mph
(ENE 7 kph)
- 10SM
21:15
Mostly Cloudy
46°F / 8°C 34°F / 1°C 62% 30.57 in
(1035 mb)
E 10.4 mph
(E 17 kph)
- 10SM
20:55
Overcast
46°F / 8°C 34°F / 1°C 62% 30.57 in
(1035 mb)
ENE 9.2 mph
(ENE 15 kph)
- 10SM
20:35
Overcast
48°F / 9°C 34°F / 1°C 58% 30.57 in
(1035 mb)
ENE 11.5 mph
(ENE 19 kph)
- 10SM
20:15
Mostly Cloudy
46°F / 8°C 36°F / 2°C 66% 30.57 in
(1035 mb)
E 9.2 mph
(E 15 kph)
- 10SM
19:55
Partly Cloudy
46°F / 8°C 36°F / 2°C 66% 30.57 in
(1035 mb)
E 6.9 mph
(E 11 kph)
- 10SM
19:35
Clear
46°F / 8°C 34°F / 1°C 62% 30.57 in
(1035 mb)
ENE 5.8 mph
(ENE 9 kph)
- 10SM
19:15
Clear
48°F / 9°C 34°F / 1°C 58% 30.57 in
(1035 mb)
ENE 9.2 mph
(ENE 15 kph)
- 10SM
18:55
Clear
48°F / 9°C 34°F / 1°C 58% 30.57 in
(1035 mb)
E 10.4 mph
(E 17 kph)
- 10SM
18:35
Clear
50°F / 10°C 34°F / 1°C 54% 30.57 in
(1035 mb)
E 8.1 mph
(E 13 kph)
- 10SM
18:15
Clear
50°F / 10°C 34°F / 1°C 54% 30.57 in
(1035 mb)
E 11.5 mph
(E 19 kph)
- 10SM
17:55
Clear
52°F / 11°C 36°F / 2°C 54% 30.57 in
(1035 mb)
E 9.2 mph
(E 15 kph)
- 10SM
17:35
Clear
54°F / 12°C 34°F / 1°C 47% 30.57 in
(1035 mb)
E 12.7 mph
(E 20 kph)
- 10SM
17:15
Clear
54°F / 12°C 34°F / 1°C 47% 30.57 in
(1035 mb)
E 9.2 mph
(E 15 kph)
- 10SM
16:55
Clear
55°F / 13°C 34°F / 1°C 44% 30.57 in
(1035 mb)
E 11.5 mph
(E 19 kph)
- 10SM
16:35
Clear
55°F / 13°C 32°F / 0°C 41% 30.57 in
(1035 mb)
E 8.1 mph
(E 13 kph)
- 10SM
16:15
Clear
55°F / 13°C 30°F / -1°C 38% 30.57 in
(1035 mb)
NE 10.4 mph
(NE 17 kph)
- 10SM
15:55
Clear
57°F / 14°C 30°F / -1°C 36% 30.57 in
(1035 mb)
ENE 11.5 mph
(ENE 19 kph)
- 10SM
15:35
Clear
57°F / 14°C 30°F / -1°C 36% 30.57 in
(1035 mb)
ENE 9.2 mph
(ENE 15 kph)
- 10SM
15:15
Clear
57°F / 14°C 30°F / -1°C 36% 30.57 in
(1035 mb)
ENE 11.5 mph
(ENE 19 kph)
- 10SM
14:55
Clear
57°F / 14°C 30°F / -1°C 36% 30.57 in
(1035 mb)
ENE 11.5 mph
(ENE 19 kph)
- 10SM
14:35
Clear
57°F / 14°C 30°F / -1°C 36% 30.57 in
(1035 mb)
ENE 9.2 mph
(ENE 15 kph)
- 10SM
14:15
Clear
57°F / 14°C 30°F / -1°C 36% 30.6 in
(1036 mb)
ENE 10.4 mph
(ENE 17 kph)
- 10SM
13:55
Clear
57°F / 14°C 32°F / 0°C 39% 30.6 in
(1036 mb)
ENE 10.4 mph
(ENE 17 kph)
- 10SM
13:35
Clear
57°F / 14°C 32°F / 0°C 39% 30.6 in
(1036 mb)
E 9.2 mph
(E 15 kph)
- 10SM
13:15
Clear
57°F / 14°C 32°F / 0°C 39% 30.6 in
(1036 mb)
NNE 10.4 mph
(NNE 17 kph)
- 10SM
12:55
Clear
57°F / 14°C 32°F / 0°C 39% 30.6 in
(1036 mb)
E 5.8 mph
(E 9 kph)
- 10SM
12:35
Clear
55°F / 13°C 32°F / 0°C 41% 30.6 in
(1036 mb)
NE 8.1 mph
(NE 13 kph)
- 10SM
12:15
Clear
57°F / 14°C 34°F / 1°C 41% 30.63 in
(1037 mb)
NE 10.4 mph
(NE 17 kph)
- 10SM
11:55
Clear
55°F / 13°C 34°F / 1°C 44% 30.63 in
(1037 mb)
E 13.8 mph
(E 22 kph)
- 10SM
11:35
Clear
55°F / 13°C 32°F / 0°C 41% 30.63 in
(1037 mb)
NE 6.9 mph
(NE 11 kph)
- 10SM
11:15
Partly Cloudy
55°F / 13°C 34°F / 1°C 44% 30.63 in
(1037 mb)
E 13.8 mph
(E 22 kph)
- 10SM
10:55
Partly Cloudy
55°F / 13°C 34°F / 1°C 44% 30.63 in
(1037 mb)
E 9.2 mph
(E 15 kph)
- 10SM
10:35
Partly Cloudy
55°F / 13°C 34°F / 1°C 44% 30.63 in
(1037 mb)
ENE 12.7 mph
(ENE 20 kph)
- 10SM
10:15
Clear
54°F / 12°C 32°F / 0°C 44% 30.66 in
(1038 mb)
NE 9.2 mph
(NE 15 kph)
- 10SM
09:55
Clear
54°F / 12°C 32°F / 0°C 44% 30.66 in
(1038 mb)
ENE 10.4 mph
(ENE 17 kph)
- 10SM
09:35
Clear
54°F / 12°C 32°F / 0°C 44% 30.63 in
(1037 mb)
NE 12.7 mph
(NE 20 kph)
- 10SM
09:15
Clear
52°F / 11°C 32°F / 0°C 47% 30.63 in
(1037 mb)
ENE 11.5 mph
(ENE 19 kph)
- 10SM
08:55
Clear
52°F / 11°C 32°F / 0°C 47% 30.63 in
(1037 mb)
ENE 12.7 mph
(ENE 20 kph)
- 10SM
08:35
Clear
50°F / 10°C 32°F / 0°C 50% 30.63 in
(1037 mb)
ENE 15 mph
(ENE 24 kph)
- 10SM
08:15
Clear
50°F / 10°C 32°F / 0°C 50% 30.63 in
(1037 mb)
ENE 12.7 mph
(ENE 20 kph)
- 10SM
07:55
Clear
48°F / 9°C 34°F / 1°C 58% 30.63 in
(1037 mb)
ENE 6.9 mph
(ENE 11 kph)
- 10SM
07:35
Clear
45°F / 7°C 34°F / 1°C 66% 30.63 in
(1037 mb)
NE 3.5 mph
(NE 6 kph)
- 10SM
07:15
Clear
43°F / 6°C 36°F / 2°C 76% 30.63 in
(1037 mb)
Calm - 10SM
06:55
Clear
39°F / 4°C 36°F / 2°C 87% 30.63 in
(1037 mb)
Calm - 10SM
06:35
Clear
36°F / 2°C 34°F / 1°C 93% 30.63 in
(1037 mb)
Calm - 10SM
06:15
Clear
34°F / 1°C 32°F / 0°C 93% 30.6 in
(1036 mb)
Calm - 10SM
05:55
Partly Cloudy
32°F / 0°C 30°F / -1°C 93% 30.6 in
(1036 mb)
Calm - 10SM
05:35
Partly Cloudy
32°F / 0°C 30°F / -1°C 93% 30.6 in
(1036 mb)
Calm - 10SM
05:15
Partly Cloudy
32°F / 0°C 30°F / -1°C 93% 30.6 in
(1036 mb)
Calm - 10SM
04:55
Clear
32°F / 0°C 30°F / -1°C 93% 30.57 in
(1035 mb)
Calm - 10SM
04:35
Clear
34°F / 1°C 30°F / -1°C 87% 30.57 in
(1035 mb)
Calm - 10SM
04:15
Clear
34°F / 1°C 30°F / -1°C 87% 30.57 in
(1035 mb)
Calm - 10SM
03:55
Clear
34°F / 1°C 30°F / -1°C 87% 30.57 in
(1035 mb)
Calm - 10SM
03:35
Clear
32°F / 0°C 30°F / -1°C 93% 30.57 in
(1035 mb)
Calm - 10SM
03:15
Clear
32°F / 0°C 30°F / -1°C 93% 30.57 in
(1035 mb)
Calm - 10SM
02:55
Clear
32°F / 0°C 30°F / -1°C 93% 30.57 in
(1035 mb)
Calm - 10SM
02:35
Clear
34°F / 1°C 30°F / -1°C 87% 30.57 in
(1035 mb)
Calm - 10SM
02:15
Clear
32°F / 0°C 30°F / -1°C 93% 30.54 in
(1034 mb)
Calm - 10SM
01:55
Clear
34°F / 1°C 30°F / -1°C 87% 30.54 in
(1034 mb)
Calm - 10SM
01:35
Clear
34°F / 1°C 30°F / -1°C 87% 30.54 in
(1034 mb)
Calm - 10SM
01:15
Clear
34°F / 1°C 30°F / -1°C 87% 30.54 in
(1034 mb)
Calm - 10SM
00:55
Clear
34°F / 1°C 30°F / -1°C 87% 30.54 in
(1034 mb)
Calm - 10SM
00:35
Clear
34°F / 1°C 28°F / -2°C 81% 30.54 in
(1034 mb)
Calm - 10SM
00:15
Clear
36°F / 2°C 30°F / -1°C 81% 30.54 in
(1034 mb)
Calm - 10SM
Time Weather Temperature Dewpoint Humidity Pressure Winds Precip Visibility


Weather for websites

WeatherForYou.com, LLC is not responsible for any damages or problems caused by this service. Current weather conditions are obtained from the closest station including government and personal stations which may have varying degrees of accuracy. Weather forecasts are derived from the NOAA NDFD. Like all things, this site belongs to Jesus Christ... He just trusts me to maintain it. If you have any questions or comments email webmaster@weatherforyou.com

Copyright © 2014, WeatherForYou.com LLC. All rights reserved.